Location: Pine Ridge Estates
(42.5164°N, 73.8156°W)
Time: 01:39:48
(UTC+00:00)

ACS3 Solar Sail - Visible Passes

Search period start: 06 October 2024 00:00
Search period end: 16 October 2024 00:00
Orbit: 961 x 1037 km, 97.4° (Epoch: 05 October)

Date Brightness Start Highest point End Pass type
(mag) Time Alt. Az. Time Alt. Az. Time Alt. Az.
06 Oct 2.2 01:17:38 51° SSW 01:19:02 63° W 01:25:22 10° NNW visible
07 Oct 2.3 00:04:53 30° ESE 00:07:12 40° ENE 00:13:02 10° N visible
07 Oct 3.1 01:50:03 33° WSW 01:51:08 35° W 01:56:55 10° NNW visible
07 Oct 3.6 22:53:50 10° ENE 22:56:09 12° NE 22:58:28 10° NE visible
08 Oct 1.8 00:37:17 50° SE 00:38:56 69° ENE 00:45:15 10° N visible
08 Oct 3.9 02:22:27 19° W 02:23:22 20° W 02:27:52 10° NW visible
08 Oct 3.1 23:24:30 15° E 23:27:30 21° ENE 23:32:03 10° NNE visible
09 Oct 2.0 01:09:40 58° SSW 01:10:48 70° W 01:17:10 10° NNW visible
09 Oct 2.4 23:56:52 29° ESE 23:59:00 36° ENE 00:04:41 10° N visible
10 Oct 2.9 01:42:02 38° WSW 01:42:49 39° W 01:48:43 10° NNW visible
10 Oct 3.6 22:46:31 10° ENE 22:47:57 11° NE 22:49:23 10° NE visible
11 Oct 1.8 00:29:14 50° ESE 00:30:39 63° ENE 00:36:53 10° N visible
11 Oct 3.8 02:14:24 22° W 02:15:00 22° W 02:19:46 10° NW visible
11 Oct 3.2 23:16:24 15° E 23:19:13 19° ENE 23:23:28 10° NNE visible
12 Oct 1.9 01:01:34 66° SSW 01:02:27 77° WSW 01:08:48 10° NNW visible
12 Oct 4.4 02:46:44 11° W 02:47:20 11° W 02:49:08 10° WNW visible
12 Oct 2.5 23:48:44 27° E 23:50:40 33° ENE 23:56:09 10° N visible
13 Oct 2.8 01:33:54 43° WSW 01:34:24 43° W 01:40:23 10° NNW visible
14 Oct 1.9 00:21:02 49° ESE 00:22:14 56° ENE 00:28:23 10° N visible
14 Oct 3.7 02:06:12 24° W 02:06:29 24° W 02:11:30 10° NW visible
14 Oct 3.2 23:08:10 14° E 23:10:50 17° ENE 23:14:43 10° NNE visible
15 Oct 1.8 00:53:20 74° S 00:53:58 84° WSW 01:00:18 10° NNW visible
15 Oct 4.4 02:38:30 13° W 02:38:43 13° W 02:41:24 10° WNW visible
15 Oct 2.6 23:40:27 26° E 23:42:11 30° ENE 23:47:28 10° N visible
